Location: DARK SKY Beskydy - Park tmavé oblohy, www.darkskybeskydy.cz
(49.4926°N, 18.5016°E)
Time: 04:12:30
(UTC+02:00)

A-11 Canister half - Pass Details

Date: 26 February 2024
Orbit: 1513 x 1686 km, 47.2° (Epoch: 24 April)

Event Time Altitude Azimuth Distance (km) Brightness Sun altitude
Rises 03:06:34 0° 251° (WSW) 4,936 - -33.8°
Reaches altitude 10° 03:09:45 10° 250° (WSW) 3,943 - -33.4°
Exits shadow 03:18:14 64° 222° (SW) 1,809 9.0 -32.2°
Maximum altitude 03:19:51 75° 168° (SSE) 1,710 9.0 -31.9°
Drops below altitude 10° 03:29:41 10° 85° (E) 3,846 11.9 -30.5°
Sets 03:32:45 0° 84° (E) 4,810 12.7 -30.0°
